Location: Unspecified
(0.0000°N, 0.0000°E)
Time: 12:05:17
(UTC+00:00)

A-11 Canister half - All Passes

Search period start: 29 April 2016 00:00
Search period end: 09 May 2016 00:00
Orbit: 1527 x 1683 km, 47.3° (Epoch: 28 April)

Date Brightness Start Highest point End Pass type
(mag) Time Alt. Az. Time Alt. Az. Time Alt. Az.
29 Apr - 00:45:13 10° SSW 00:54:32 70° SE 01:04:08 10° NE visible
29 Apr - 02:52:20 10° W 02:59:35 24° NW 03:07:00 10° N visible
29 Apr - 11:33:11 10° N 11:41:46 31° NE 11:50:08 10° ESE daylight
29 Apr - 13:37:00 10° NW 13:46:47 58° SW 13:56:18 10° SSE daylight
29 Apr - 22:26:27 10° SE 22:27:34 10° SE 22:28:40 10° SE night (unlit)
30 Apr - 00:23:43 10° SSW 00:32:59 65° SE 00:42:29 10° NE visible
30 Apr - 02:30:29 10° W 02:37:58 26° NW 02:45:39 10° N visible
30 Apr - 11:11:46 10° N 11:20:09 29° NE 11:28:20 10° ESE daylight
30 Apr - 13:15:20 10° NW 13:25:11 62° SW 13:34:48 10° SSE daylight
01 May - 00:02:14 10° SSW 00:11:26 61° SE 00:20:50 10° NE night (unlit)
01 May - 02:08:39 10° WSW 02:16:21 28° NW 02:24:17 10° N visible
01 May - 10:50:23 10° N 10:58:31 27° NE 11:06:28 10° ESE daylight
01 May - 12:53:40 10° NW 13:03:36 66° SW 13:13:19 10° SSE daylight
01 May - 15:06:35 10° WSW 15:09:07 11° SW 15:11:40 10° SSW daylight
01 May - 23:40:45 10° SSW 23:49:52 57° SE 23:59:09 10° NE night (unlit)
02 May - 01:46:51 10° WSW 01:54:45 30° NW 02:02:53 10° N visible
02 May - 10:29:01 10° N 10:36:53 25° NE 10:44:36 10° E daylight
02 May - 12:31:59 10° NW 12:42:01 71° SW 12:51:48 10° SSE daylight
02 May - 14:43:47 10° WSW 14:47:27 12° SW 14:51:07 10° SSW daylight
02 May - 23:19:17 10° SSW 23:28:18 53° SE 23:37:29 10° NE night (unlit)
03 May - 01:25:04 10° WSW 01:33:10 32° NW 01:41:29 10° NNE visible
03 May - 10:07:41 10° N 10:15:15 24° NE 10:22:41 10° E daylight
03 May - 12:10:21 10° NW 12:20:26 75° SW 12:30:16 10° SE daylight
03 May - 14:21:18 10° WSW 14:25:48 14° SW 14:30:17 10° SSW daylight
03 May - 22:57:50 10° SSW 23:06:44 49° SE 23:15:47 10° ENE night (unlit)
04 May - 01:03:18 10° WSW 01:11:34 35° NW 01:20:04 10° NNE visible
04 May - 09:46:22 10° N 09:53:36 22° NE 10:00:44 10° E daylight
04 May - 11:48:43 10° NW 11:58:50 80° SW 12:08:44 10° SE daylight
04 May - 13:58:58 10° WSW 14:04:09 15° SW 14:09:18 10° SSW daylight
04 May - 22:36:24 10° SSW 22:45:11 46° SE 22:54:04 10° ENE night (unlit)
05 May - 00:41:35 10° WSW 00:49:59 37° NW 00:58:38 10° NNE visible
05 May - 09:25:05 10° N 09:31:57 20° NE 09:38:45 10° E daylight
05 May - 11:27:05 10° NW 11:37:14 85° SW 11:47:11 10° SE daylight
05 May - 13:36:44 10° W 13:42:30 17° SW 13:48:13 10° S daylight
05 May - 22:14:58 10° SSW 22:23:37 42° SE 22:32:21 10° ENE night (unlit)
06 May - 00:19:51 10° WSW 00:28:24 40° NW 00:37:11 10° NNE visible
06 May - 09:03:49 10° N 09:10:18 19° NE 09:16:42 10° E daylight
06 May - 11:05:29 10° NW 11:15:39 90° ENE 11:25:37 10° SE daylight
06 May - 13:14:36 10° W 13:20:52 18° SW 13:27:05 10° S daylight
06 May - 21:53:33 10° SSW 22:02:03 39° SE 22:10:36 10° ENE night (unlit)
06 May - 23:58:09 10° WSW 00:06:50 43° NW 00:15:43 10° NNE visible
07 May - 08:42:37 10° N 08:48:39 17° NE 08:54:37 10° E daylight
07 May - 10:43:52 10° NW 10:54:03 85° NE 11:04:02 10° SE daylight
07 May - 12:52:31 10° W 12:59:14 20° SW 13:05:52 10° S daylight
07 May - 21:32:09 10° SSW 21:40:28 36° SE 21:48:51 10° ENE night (unlit)
07 May - 23:36:28 10° WSW 23:45:15 46° NW 23:54:15 10° NNE night (unlit)
08 May - 08:21:28 10° NNE 08:26:59 16° NE 08:32:26 10° E daylight
08 May - 10:22:17 10° NW 10:32:28 80° NE 10:42:27 10° SE daylight
08 May - 12:30:29 10° W 12:37:35 22° SW 12:44:38 10° S daylight
08 May - 21:10:45 10° SSW 21:18:54 34° SE 21:27:04 10° ENE night (unlit)
08 May - 23:14:48 10° WSW 23:23:41 50° NW 23:32:47 10° NNE night (unlit)
